Вернуться в каталог

CZ-6A DEB

АктивенPO
NORAD 61273·DEBRIS·🇨🇳 China

Запущен Aug 6, 2024 с Taiyuan Satellite Launch Center

Loading…

Ближайшие Пролёты (ближайшие 24 часа)

TLE

СвежийSource: Space-Track

Эпоха: Sep 14, 2026, 10:32 UTC

1 61273U 24140SJ  26257.43895775  .00002387  00000-0  12321-2 0  9991
2 61273  88.8459 252.6176 0093970 304.7000  54.5359 14.12540120105641

Отслеживайте CZ-6A DEB в реальном времени с AllMySat

Download on the App Store